map of MQY home
MQY - Airport
Location
City:  Smyrna, Tennessee, United States
ICAO:KMQY
IATA:MQY
FAA LID:MQY

Details
Type:Airport (Part 139 Class IV)
Use:Public/Civil
Latitude:3600'32"N (36.008972)
Longitude:8631'12"W (-86.520082)
Datum:WGS 1984
Elevation:543 ft (166 m)
Variation:3.99W (WMM2015 magnetic declination)
-0.08 annual change
Runways:2
Longest:8048 × 150 ft (2453 × 45.5 m), paved

Time
Time Zone:UTC-6 (DST-5)
Local Time:

Weather
METAR:KMQY 170056Z 12004KT 10SM BKN043 BKN050 25/22 A2998 RMK AO2 RAB08E27 SLP034 P0001 T02500222
TAF:KMQY 162320Z 1700/1724 23006KT P6SM VCTS BKN040CB
FM170100 23004KT P6SM SCT090
FM171800 34007KT P6SM FEW040 SCT200

Related Locations
Nearby:
Farthest:YAUG: 11214 mi / 18047 km
Augusta [Augusta Airport], WA, AU

Find:

   beyond  
but within

Other Information
Maps:
NOTAMs:
Links:
Sources:

  
  • flag of United States
  • flag of Tennessee
  

Airport Diagram

Airport diagram for MQY

Airport diagram PDF

Sectional Chart

Flight Planning
at skyvector.com

Satellite Image

Google Maps Satellite view

 

Copyright © 2004-2018 Karl L. Swartz. All rights reserved.
The Great Circle Mapper name and logo are trademarks of the Great Circle Mapper.
All other trademarks mentioned herein belong to their respective owners.
Please see credits for attibutions and further copyright information.

  Follow gcmap on Facebook Follow gcmap on Twitter Follow gcmap on Google+ GCmap on LinkedIn

hCard Microformat

Geo Microformat